ギクラス彗星

84P/Giclas (2020)

English version
Home page
Updated on July 2, 2021

---------------------------------------------------------------------

・ プロフィール

・ 写真集

・ 軌道要素

Epoch 2020 Dec. 17.0 TT = JDT 2459200.5                                         
T 2020 June 3.83063 TT                                  Rudenko                 
q   1.7188605            (2000.0)            P               Q                  
n   0.14744455     Peri.  281.56934     +0.86017544     -0.49447486             
a   3.5485443      Node   108.17480     +0.50397332     +0.78661646             
e   0.5156153      Incl.    7.55213     +0.07816072     +0.36976907             
P   6.68                                                                        
From 1716 observations 1985 Dec. 5-2021 Mar. 18, mean residual 0".7.            
     Nongravitational parameters A1 = +0.09, A2 = -0.0025.                      

・ 星図

・ 光度変化

        m1 = 9.3 + 5 logΔ + 20.0 log r(t - 70)

---------------------------------------------------------------------

軌道要素はM.P.E.C. 2021-F115に掲載されたものです。
星図はステラナビゲータ Ver.10 (アストロアーツ) で作成したものです。
光度グラフはComet for Windowsで作成したものです。

---------------------------------------------------------------------

Copyright(C) Seiichi Yoshida (comet@aerith.net). All rights reserved.